Dewpoint
20 20 19 20 19 18 18 20 21 21 21 20 18 17 18 20 21 21 23 22 21 20 20 20 20 21 22 27 30 31 32 33 33 33 33 33 33 33 33 33 33 33 33 33 33 33 33 34 34 34 34 34 34 34 34 35 35 35 36 36 36 36 38 39 40 41 41 41 41 40 40 40 41 41 42 42 42 42 43 44 45 46 48 47 47 46
19 19 19 19 19 19 20 22 22 21 20 17 16 17 18 19 20 21 21 21 21 20 20 20 20 20 20 25 29 32 33 33 33 33 33 32 32 32 32 32 32 32 32 32 33 33 33 33 33 33 34 34 34 35 35 35 35 36 36 36 36 36 37 38 39 39 40 40 40 40 40 41 41 42 42 42 42 42 43 43 44 46 47 47 47 47
18 17 18 20 21 22 23 23 22 20 18 16 17 18 20 21 21 21 20 20 20 21 21 21 21 21 21 25 29 32 33 33 33 33 32 31 31 31 31 31 31 31 32 32 32 32 32 33 33 33 34 34 35 35 35 35 36 36 36 35 35 35 36 36 37 38 39 39 39 39 40 40 41 42 42 43 43 43 43 44 44 46 47 48 48 47
18 19 21 24 26 25 24 21 19 17 17 17 19 21 22 22 22 21 20 20 21 22 22 22 22 23 25 27 30 32 33 33 32 31 30 30 30 30 30 31 31 31 31 31 31 32 32 32 33 33 33 34 34 35 35 35 34 34 34 34 34 35 35 35 36 37 37 38 39 39 39 40 40 41 42 43 44 44 44 44 45 46 47 47 48 48
22 25 27 27 26 23 20 18 17 16 17 19 21 23 24 22 21 21 21 22 23 24 24 24 25 26 28 29 30 31 32 31 30 30 30 30 30 30 30 30 30 30 31 31 31 31 32 32 32 32 33 33 33 33 33 33 33 33 33 34 34 35 35 36 36 36 37 38 39 39 39 39 39 39 41 42 43 44 44 44 45 45 46 46 47 48
26 28 27 24 21 18 17 16 16 17 20 22 24 25 23 21 21 22 24 26 26 26 26 27 28 29 29 28 28 28 30 29 29 29 29 30 30 30 30 30 30 30 30 30 31 31 31 31 31 32 32 32 32 32 32 32 33 33 34 35 35 36 37 36 36 36 36 37 38 39 38 38 37 38 39 40 42 43 44 44 44 44 45 45 46 47
26 25 22 20 18 17 16 17 18 21 25 27 26 24 22 22 24 26 28 28 28 28 29 29 28 27 25 24 24 25 26 26 27 28 28 29 29 29 29 30 30 30 30 30 30 30 30 30 31 31 31 32 32 32 33 33 33 34 35 35 36 36 36 36 35 35 35 36 37 38 38 37 36 36 37 39 40 42 43 43 44 44 44 44 45 46
22 20 19 18 17 17 18 21 25 28 31 29 26 24 24 27 29 31 30 29 28 27 26 25 24 22 20 19 19 21 21 21 22 23 24 26 26 27 28 29 29 29 29 30 30 30 30 30 31 31 31 32 32 33 33 33 33 34 34 34 34 35 35 35 35 35 35 35 36 37 37 37 36 36 37 39 40 41 42 43 44 44 44 44 45 46
20 19 19 19 20 21 23 27 30 31 29 26 26 26 28 29 30 30 27 25 24 22 21 20 19 18 17 17 18 19 20 20 20 19 20 21 21 23 26 27 28 28 29 29 29 30 30 30 31 32 32 33 33 33 34 33 33 33 33 33 33 34 34 34 34 35 35 35 36 36 36 36 37 37 39 40 41 41 42 43 44 44 44 44 45 46
21 21 21 23 26 28 28 27 27 26 25 27 29 30 30 28 26 24 21 20 19 19 18 18 18 17 17 18 18 18 20 21 22 23 24 23 23 24 25 26 26 26 28 28 29 30 30 31 32 32 33 33 33 33 33 33 33 33 33 33 33 34 34 34 35 35 35 35 36 36 36 37 38 39 40 40 40 41 42 42 43 44 44 44 45 46
24 25 26 28 29 29 26 23 22 23 27 29 30 29 27 25 22 20 18 17 17 17 17 17 18 18 18 18 18 18 18 18 19 21 23 24 25 26 26 25 25 26 27 28 29 30 31 31 32 32 32 32 32 32 32 32 32 32 33 33 33 34 34 35 35 35 36 36 36 37 38 39 39 40 40 40 40 40 41 42 42 43 43 43 44 45
27 28 27 25 23 21 20 19 21 25 28 27 26 23 21 19 18 18 17 17 17 17 17 17 18 19 20 19 18 17 17 16 16 17 18 20 21 22 22 22 23 25 26 28 29 30 30 30 30 30 30 30 30 31 31 31 31 32 32 33 33 34 35 35 35 35 36 37 38 39 39 39 40 39 39 39 39 40 40 41 41 42 41 42 42 43
27 25 23 21 19 17 17 17 19 21 23 22 21 19 17 17 17 18 18 17 17 17 17 18 19 20 20 19 17 17 15 15 15 17 18 18 19 19 19 19 20 21 23 24 25 26 28 29 29 29 29 29 30 30 30 31 31 32 32 33 34 34 35 35 35 36 37 39 39 39 40 39 39 39 39 39 39 40 40 41 41 41 41 41 41 42
23 21 19 18 17 17 16 17 18 19 20 19 18 17 17 17 17 18 18 17 18 18 19 20 20 19 18 17 17 16 16 16 17 19 20 19 19 19 19 19 19 20 21 21 21 23 26 26 26 27 28 28 29 29 30 30 31 32 33 33 34 35 35 35 36 38 39 39 39 39 39 38 37 37 37 38 39 39 40 41 41 41 41 41 42 42
20 19 17 17 16 16 16 17 18 18 18 17 17 17 17 17 17 17 17 17 18 19 20 21 20 18 16 15 16 17 17 19 21 21 21 20 20 20 20 20 20 21 21 21 21 22 25 24 24 24 25 26 27 28 29 30 31 33 33 34 34 35 36 37 38 39 39 39 38 37 36 35 35 35 36 38 39 39 40 40 40 41 41 41 41 42
19 18 17 16 16 16 16 17 17 17 18 18 18 18 18 17 17 17 17 18 19 20 20 19 18 17 15 15 17 19 22 23 22 21 20 19 19 20 20 21 21 21 21 21 21 21 22 22 23 23 24 26 28 30 30 31 32 33 34 34 35 36 36 37 37 37 36 36 35 35 34 34 35 35 37 38 39 39 39 39 40 40 39 40 40 40
18 17 16 16 16 16 17 17 17 17 18 18 18 18 18 18 18 18 18 19 20 21 20 19 17 16 15 16 18 21 25 23 22 20 19 18 19 19 21 21 21 21 21 21 21 21 21 22 22 22 24 27 29 31 31 32 33 34 35 35 35 35 35 35 35 34 34 34 34 34 34 35 35 37 38 39 39 39 39 39 39 38 38 38 38 38
18 17 17 16 16 16 16 16 17 18 19 18 18 19 19 19 19 19 19 20 20 21 20 19 17 17 17 18 20 22 23 22 21 20 19 18 19 19 20 21 21 21 21 21 21 21 22 22 22 23 26 30 31 32 32 32 32 34 35 35 35 34 33 33 33 33 33 34 34 35 35 36 37 38 39 39 39 38 38 38 37 37 36 36 36 36
17 17 16 15 15 15 16 17 17 18 18 19 19 19 19 19 19 20 20 21 21 21 21 20 20 20 20 21 21 21 21 21 20 20 19 19 19 19 19 21 21 21 21 21 21 22 23 23 25 28 31 33 33 33 32 32 32 33 34 33 33 33 32 32 33 33 34 34 35 35 37 37 38 38 38 37 37 37 36 36 36 35 35 35 35 36
17 16 15 15 15 16 17 17 19 20 20 21 21 21 21 21 21 21 22 23 23 23 22 22 21 21 21 21 21 20 20 20 20 20 19 19 18 19 20 20 21 21 21 21 22 24 27 29 31 33 34 33 33 32 32 32 32 32 32 32 32 32 32 33 33 34 34 35 36 37 38 38 37 36 36 35 35 35 35 35 35 35 36 37 37 38
17 16 16 16 17 17 17 19 20 22 23 24 24 23 22 22 22 23 24 24 23 22 21 21 21 21 21 20 20 20 20 20 20 19 19 18 18 19 19 20 21 21 21 22 26 29 32 32 31 31 31 31 31 31 31 31 31 31 31 31 31 32 32 33 33 34 35 36 37 37 37 36 35 34 34 34 34 34 35 35 36 37 39 39 39 39
17 16 17 17 18 18 20 21 23 25 26 26 26 25 24 24 24 24 24 23 22 21 21 21 21 21 21 21 20 20 20 20 20 19 19 19 18 19 20 21 21 22 23 25 28 30 30 27 25 25 27 29 30 30 30 30 30 31 31 31 31 32 32 33 34 35 36 36 36 35 35 34 33 33 34 35 35 36 36 37 38 39 39 39 39 39
17 17 17 18 20 21 23 24 26 27 28 28 28 27 27 26 25 23 22 22 22 22 23 22 22 21 21 20 19 19 19 20 20 20 20 19 18 18 19 21 22 23 25 26 26 25 24 23 23 24 26 28 29 29 29 30 30 30 30 31 31 32 32 33 35 35 36 36 35 35 34 33 34 34 35 36 37 38 38 38 39 38 38 38 37 37
18 19 20 21 24 26 27 27 27 27 27 27 26 26 26 25 24 23 23 24 24 24 24 23 21 20 19 18 17 17 18 19 20 20 18 18 17 18 19 22 24 24 24 23 21 20 20 21 23 24 25 27 28 28 28 29 29 30 30 30 31 32 33 34 35 35 36 35 35 34 34 34 35 35 36 37 37 37 37 37 37 36 36 36 35 35
21 22 23 26 29 30 29 27 26 25 23 22 21 21 22 23 24 25 25 25 24 23 21 20 18 17 17 17 17 17 17 18 19 18 18 18 18 20 21 23 23 22 20 19 20 20 21 21 22 22 23 24 26 27 28 28 29 30 30 31 32 33 34 35 35 35 35 34 34 34 34 34 35 35 35 35 35 35 35 35 35 35 35 35 35 35
26 27 29 30 30 29 27 26 25 24 24 22 22 21 22 23 24 24 24 23 21 20 19 18 17 16 16 16 16 16 16 18 19 20 20 20 21 21 22 21 20 19 18 19 21 21 21 21 20 21 21 22 25 27 28 29 30 30 31 32 33 34 35 35 34 34 33 33 33 33 33 34 34 35 35 35 34 34 34 34 34 34 35 35 35 35
30 31 31 29 27 26 25 25 26 26 26 26 25 24 24 24 24 23 22 21 20 19 18 17 17 16 16 16 15 16 17 18 19 21 23 22 22 21 20 19 19 19 19 19 20 20 21 21 21 21 21 22 24 26 28 29 30 31 32 33 34 34 35 34 33 33 32 32 32 33 33 34 34 34 35 34 34 34 34 34 34 35 35 34 34 35
30 29 27 25 25 24 25 25 26 26 26 26 27 27 26 25 23 22 21 20 19 18 18 17 17 16 16 16 15 16 17 18 20 21 23 22 20 18 17 17 18 18 18 19 20 21 22 21 21 21 22 23 24 26 29 30 31 32 33 33 34 34 33 33 32 32 32 32 33 33 34 34 34 35 35 35 35 35 34 35 35 35 35 34 34 34
26 25 23 23 24 24 24 24 24 25 26 26 26 27 27 25 23 21 20 19 19 18 18 17 17 17 17 17 17 17 17 17 19 20 20 19 17 17 17 17 18 18 19 19 19 20 20 21 21 21 21 23 25 26 28 30 31 32 33 33 32 32 32 32 32 32 32 33 33 34 34 34 35 35 34 34 34 34 34 34 34 34 34 34 34 34
20 20 20 21 21 22 21 21 21 23 25 26 26 27 27 24 22 21 20 19 19 19 18 18 17 17 17 17 17 17 16 16 17 18 18 17 17 17 17 18 18 19 20 20 19 18 18 18 19 20 21 22 24 26 27 29 30 30 30 30 30 30 31 31 32 32 33 33 34 34 34 34 34 34 34 33 33 34 34 34 34 34 34 35 35 35
17 17 17 17 18 18 19 19 20 21 23 25 26 26 25 23 21 20 20 20 19 19 19 18 18 18 18 18 17 16 15 15 17 18 18 18 18 18 19 19 20 20 21 20 19 18 17 17 18 19 20 21 22 24 26 27 27 27 26 26 27 28 30 31 31 32 33 33 33 33 33 33 33 33 33 33 33 33 34 34 34 34 35 35 35 35
17 17 17 17 17 17 18 19 19 20 21 22 23 23 23 22 21 20 20 20 20 20 20 19 19 19 19 18 17 17 16 16 18 20 20 20 20 20 20 20 20 20 21 21 21 19 18 17 17 18 20 21 22 23 25 25 25 25 25 26 26 28 30 31 31 31 31 31 31 31 31 31 32 32 32 33 33 33 34 34 35 35 35 35 35 35
18 17 17 18 18 18 19 19 19 20 20 21 21 21 21 21 21 21 21 21 21 21 21 21 20 19 19 19 18 18 17 17 19 21 22 21 21 21 21 21 21 21 21 21 21 21 20 19 19 19 20 21 21 22 23 23 23 24 26 27 27 28 29 29 29 29 28 29 29 30 30 30 31 31 32 32 33 34 34 35 35 35 36 36 36 36
18 18 18 18 19 19 19 19 19 20 20 20 20 20 20 20 21 21 21 21 21 21 21 21 21 20 20 19 18 18 17 18 20 22 23 22 22 21 21 21 21 21 21 20 20 20 20 19 19 19 20 21 21 21 21 21 23 26 27 27 27 26 26 26 26 26 26 26 27 27 28 29 30 31 31 32 33 34 34 35 35 36 37 37 37 36
18 19 19 19 18 18 18 19 19 19 19 20 20 20 20 20 20 21 21 21 21 21 21 22 21 21 21 20 19 19 18 18 21 23 24 23 23 22 22 21 21 20 21 20 20 20 19 19 20 21 21 21 20 20 21 22 24 25 26 26 25 24 24 24 24 25 25 26 26 26 26 27 28 30 30 32 33 34 35 35 36 37 37 38 38 38
18 19 19 18 18 18 18 18 18 18 19 18 19 19 20 20 20 20 21 21 22 22 22 22 22 22 22 22 21 21 20 21 22 24 25 24 24 23 22 21 21 21 21 21 20 20 20 20 21 21 21 20 19 19 20 21 22 23 23 23 23 23 23 24 24 24 25 25 25 26 26 27 28 29 30 33 34 35 35 36 37 37 38 38 39 39
19 19 19 18 18 18 18 18 17 17 17 17 18 18 19 19 20 20 20 21 22 22 22 23 23 23 24 24 23 23 23 23 23 25 26 25 25 24 23 22 22 22 21 21 21 21 21 21 21 21 20 19 19 19 19 20 20 21 21 21 21 22 22 23 24 25 25 25 26 26 27 28 29 30 32 34 35 35 36 37 37 37 38 38 39 39
19 18 18 18 18 18 17 17 17 17 18 18 18 19 19 19 20 20 20 21 22 22 22 22 22 23 25 25 26 25 25 25 25 25 26 26 26 25 24 23 23 23 23 23 23 23 22 21 20 19 18 18 18 18 18 18 19 19 20 20 21 21 22 23 24 25 26 26 26 27 28 29 30 31 33 34 34 35 35 35 36 37 37 38 39 39
18 18 18 18 18 18 17 17 17 18 18 19 19 20 20 20 21 21 20 20 21 21 21 21 21 22 23 24 25 26 26 26 26 26 26 26 26 26 25 24 24 24 24 24 24 24 23 21 20 19 18 17 17 17 17 18 18 19 19 20 20 21 22 23 24 25 26 26 27 28 29 30 31 32 32 33 33 33 33 34 35 35 36 37 38 39
19 18 18 18 18 18 18 18 18 18 19 20 20 21 21 21 20 20 19 20 20 21 21 21 21 22 22 23 24 25 26 26 26 26 26 26 26 26 26 25 25 25 25 25 25 24 23 21 19 18 17 17 17 17 17 18 18 20 21 20 19 20 21 22 24 25 26 26 27 28 29 30 31 32 32 33 33 33 33 33 34 35 36 37 37 38
19 18 18 18 18 18 19 19 19 19 20 20 20 20 20 19 19 19 19 20 20 21 20 21 21 21 22 23 23 23 24 25 26 26 26 26 26 26 26 26 25 25 25 25 23 22 20 19 18 17 17 17 17 18 18 18 20 21 21 20 20 20 21 23 24 26 27 28 29 30 30 31 32 32 32 33 33 33 34 34 35 35 37 37 37 37
19 18 17 17 17 17 17 18 19 20 20 20 19 19 19 19 19 19 19 19 19 20 20 20 20 20 21 21 21 22 23 24 25 26 27 27 27 27 26 26 26 26 26 23 21 20 19 19 18 18 18 18 18 18 18 18 20 21 21 20 21 21 22 23 24 26 27 28 29 30 31 31 31 31 32 32 33 34 35 35 36 37 38 38 38 38
19 18 17 17 17 18 18 19 20 20 19 19 18 18 19 19 19 19 20 19 19 19 20 20 20 20 20 20 20 21 22 24 25 26 26 26 26 26 27 27 26 25 23 21 20 19 19 19 19 18 18 19 19 19 18 19 19 20 20 21 21 21 21 21 23 25 26 27 28 29 30 31 31 31 32 33 33 34 35 35 37 38 38 38 38 38
18 18 18 18 18 18 19 19 19 18 18 18 18 19 19 19 20 20 20 20 20 20 20 20 20 20 20 20 19 20 21 22 24 25 26 26 27 28 28 27 26 24 23 21 20 19 18 18 18 18 18 19 19 19 19 19 19 20 20 21 22 22 21 22 24 25 26 27 28 29 30 31 31 32 32 33 33 34 35 35 35 36 38 38 38 39
18 18 18 18 18 18 18 18 18 18 18 18 18 18 19 19 20 20 20 20 20 20 20 20 20 20 19 18 18 19 20 21 22 23 24 26 27 28 27 26 24 23 22 21 21 20 19 18 17 17 18 19 19 19 19 19 20 20 21 22 23 23 23 24 25 26 26 27 28 29 30 31 31 31 32 32 33 34 34 35 35 36 37 38 38 39
18 18 18 18 18 18 18 18 18 18 18 18 18 18 19 19 19 20 20 20 20 20 20 20 20 19 18 18 18 19 20 20 21 21 22 23 24 25 26 25 23 22 21 21 20 20 20 19 19 19 19 19 19 19 20 20 20 21 21 22 22 23 23 24 25 26 26 28 29 30 30 31 31 31 32 32 33 34 35 35 35 36 37 37 38 38
18 18 18 17 17 17 17 18 18 18 18 18 18 18 19 19 19 20 20 20 20 20 20 20 20 19 18 18 19 19 20 20 20 20 20 21 22 23 23 22 22 21 20 20 20 20 20 21 21 20 20 19 19 19 20 21 21 21 21 22 22 22 23 23 25 26 28 29 30 30 30 31 31 31 32 32 33 34 35 35 36 36 37 37 38 38
18 18 18 17 17 17 17 17 17 17 17 17 18 18 19 19 20 20 20 20 20 20 20 19 19 19 18 19 19 20 21 20 20 19 19 20 21 21 21 20 19 19 20 20 20 21 21 21 21 21 21 20 19 19 20 21 22 22 22 23 23 23 23 24 25 27 29 30 30 30 30 30 30 31 31 32 32 33 34 35 35 36 37 37 37 38
18 18 18 18 17 17 17 17 17 17 17 17 17 18 18 20 21 21 20 20 20 20 19 19 19 18 18 19 20 21 21 20 19 19 19 20 20 20 20 19 18 18 18 18 19 20 21 22 23 24 23 23 22 22 22 22 22 22 23 23 23 23 24 25 26 28 29 29 30 30 31 31 31 31 32 32 32 32 33 34 35 36 37 37 38 38
18 18 18 18 17 17 17 17 17 17 17 18 18 18 18 19 19 20 20 20 20 20 19 19 19 19 19 19 20 20 20 19 19 18 19 20 20 20 19 18 17 17 17 17 17 18 20 21 23 25 26 26 26 25 23 22 22 23 23 24 24 24 25 26 27 28 29 30 30 30 31 32 32 32 32 32 31 31 32 33 34 35 36 37 37 38
18 18 18 18 17 17 17 17 18 18 18 18 19 19 19 19 19 19 19 19 19 19 19 19 20 20 20 20 20 20 20 19 18 18 19 20 20 19 18 17 17 17 16 15 16 17 17 18 19 20 22 25 26 26 25 24 24 24 23 24 24 25 26 26 27 28 29 30 30 30 31 31 32 32 32 31 31 31 31 32 33 34 35 36 37 37